Location: Newark
(25.0000°N, 73.5000°E)
Time: 00:51:28
(UTC+00:00)

Tiros 1 despin weight - Pass Details

Date: 07 March 2021
Orbit: 593 x 641 km, 48.2° (Epoch: 15 April)

Event Time Altitude Azimuth Distance (km) Brightness Sun altitude
Rises 15:34:17 0° 226° (SW) 2,825 ? -33.1°
Reaches altitude 10° 15:36:33 10° 228° (SW) 1,931 ? -33.6°
Enters shadow 15:36:44 11° 228° (SW) 1,856 ? -33.7°
Maximum altitude 15:40:58 81° 315° (NW) 614 - -34.6°
Drops below altitude 10° 15:45:30 10° 43° (NE) 1,965 - -35.6°
Sets 15:47:49 0° 45° (NE) 2,881 - -36.1°
